Tracking 31027 objects as of 19-Jul-2025
HD Live streaming from Space Station
objects crossing your sky now

DMSP 5D-2 F14 DEB

Track DMSP 5D-2 F14 DEB now!
10-day predictions


NORAD ID: 62939
Int'l Code: 1997-012K
Perigee: 836.8 km
Apogee: 846.1 km
Inclination: 98.8 °
Period: 101.6 minutes
Semi major axis: 7212 km
RCS: Unknown
Launch date: April 4, 1997
Source: United States (US)
Launch site: AIR FORCE WESTERN TEST RANGE (AFWTR)

Note: This is SATELLITE DEBRIS
Your satellite tracking list
DEWASAT-2
Track 1 satellite(s)




NASA's NSSDC Master Catalog

Two Line Element Set (TLE):
1 62939U 97012K   25199.57238835  .00001004  00000-0  51808-3 0  9995
2 62939  98.8267 247.8089 0006445 310.9002  49.1614 14.17360768 29743
Source of the keplerian elements: AFSPC